SCP
0 0 0 0 0 0 0 0 0 0 0 0 0 0 0 0 0 0 0 0 0 0 0 0 0 0 0 0 0 0 0 0 0 0 0 0 0 0 0 0 0 0 0
0 0 0 0 0 0 0 0 0 0 0 0 0 0 0 0 0 0 0 0 0 0 0 0 0 0 0 0 0 0 0 0 0 0 0 0 0 0 0 0 0 0 0
0 0 0 0 0 0 0 0 0 0 0 0 0 0 0 0 0 0 0 0 0 0 0 0 0 0 0 0 0 0 0 0 0 0 0 0 0 0 0 0 0 0 0
0 0 0 0 0 0 0 0 0 0 0 0 0 0 0 0 0 0 0 0 0 0 0 0 0 0 0 0 0 0 0 0 0 0 0 0 0 0 0 0 0 0 0
0 0 0 0 0 0 0 0 0 0 0 0 0 0 0 0 0 0 0 0 0 0 0 0 0 0 0 0 0 0 0 0 0 0 0 0 0 0 0 0 0 0 0
0 0 0 0 0 0 0 0 0 0 0 0 0 0 0 0 0 0 0 0 0 0 0 0 0 0 0 0 0 0 0 0 0 0 0 0 0 0 0 0 0 0 0
0 0 0 0 0 0 0 0 0 0 0 0 0 0 0 0 0 0 0 0 0 0 0 0 0 0 0 0 0 0 0 0 0 0 0 0 0 0 0 0 0 0 0
0 0 0 0 0 0 0 0 0 0 0 0 0 0 0 0 0 0 0 0 0 0 0 0 0 0 0 0 0 0 0 0 0 0 0 0 0 0 0 0 0 0 0
0 0 0 0 0 0 0 0 0 0 0 0 0 0 0 0 0 0 0 0 0 0 0 0 0 0 0 0 0 0 0 0 0 0 0 0 0 0 0 0 0 0 0
0 0 0 0 0 0 0 0 0 0 0 0 0 0 0 0 0 0 0 0 0 0 0 0 0 0 0 0 0 0 0 0 0 0 0 0 0 0 0 0 0 0 0
0 0 0 0 0 0 0 0 0 0 0 0 0 0 0 0 0 0 0 0 0 0 0 0 0 0 0 0 0 0 0 0 0 0 0 0 0 0 0 0 0 0 0
0 0 0 0 0 0 0 0 0 0 0 0 0 0 0 0 0 0 0 0 0 0 0 0 0 0 0 0 0 0 0 0 0 0 0 0 0 0 0 0 0 0 0
0 0 0 0 0 0 0 0 0 0 0 0 0 0 0 0 0 0 0 0 0 0 0 0 0 0 0 0 0 0 0 0 0 0 0 0 0 0 0 0 0 0 0
0 0 0 0 0 0 0 0 0 0 0 0 0 0 0 0 0 0 0 0 0 0 0 0 0 0 0 0 0 0 0 0 0 0 0 0 0 0 0 0 0 0 0
0 0 0 0 0 0 0 0 0 0 0 0 0 0 0 0 0 0 0 0 0 0 0 0 0 0 0 0 0 0 0 0 0 0 0 0 0 0 0 0 0 0 0
0 0 0 0 0 0 0 0 0 0 0 0 0 0 0 0 0 0 0 0 0 0 0 0 0 0 0 0 0 0 0 0 0 0 0 0 0 0 0 0 0 0 0
0 0 0 0 0 0 0 0 0 0 0 0 0 0 0 0 0 0 0 0 0 0 0 0 0 0 0 0 0 0 0 0 0 0 0 0 0 0 0 0 0 0 0
0 -0 -0 -0 0 0 0 0 0 0 0 0 0 0 0 0 0 0 0 0 0 0 0 0 0 0 0 0 0 0 0 0 0 0 0 0 0 0 0 0 0 0 0
0 0 0 0 0 0 0 0 0 0 0 0 0 0 0 0 0 0 0 0 0 0 0 0 0 0 0 0 0 0 0 0 0 0 0 0 0 0 0 0 0 0 0
0 0 0 0 0 0 0 0 0 0 0 0 0 0 0 0 0 0 0 0 0 0 0 0 0 0 0 0 0 0 0 0 0 0 0 0 0 0 0 0 0 0 0
0 0 0 0 0 0 0 0 0 0 0 0 0 0 0 0 0 0 0 0 0 0 0 0 0 0 0 0 0 0 0 0 0 0 0 0 0 0 0 0 0 0 0
0 0 0 0 0 0 0 0 0 0 0 0 0 0 0 0 0 0 0 0 0 0 0 0 0 0 0 0 0 0 0 0 0 0 0 0 0 0 0 0 0 0 0
0 0 0 0 0 0 0 0 0 0 0 0 0 0 0 0 0 0 0 0 0 0 0 0 0 0 0 0 0 0 0 0 0 0 0 0 0 0 0 0 0 0 0
0 0 0 0 0 0 0 0 0 0 0 0 0 0 0 0 0 0 0 0 0 0 0 0 0 0 0 0 0 0 0 0 0 0 0 0 0 0 0 0 0 0 0
0 0 0 0 0 0 0 0 0 0 0 0 0 0 0 0 0 0 0 0 0 0 0 0 0 0 0 0 0 0 0 0 0 0 0 0 0 0 0 0 0 0 0
0 0 0 0 0 0 0 0 0 0 0 0 0 0 0 0 0 0 0 0 0 0 0 0 0 0 0 0 0 0 0 0 0 0 0 0 0 0 0 0 0 0 0
Wind_Speed_500mb
19 18 18 19 21 23 26 29 31 33 33 33 33 34 39 44 46 51 56 59 63 66 68 69 72 71 74 73 74 80 81 82 100 111 104 100 98 92 89 89 88 90 91
22 20 19 18 17 16 14 14 14 15 18 21 25 29 34 39 42 46 51 54 59 65 66 70 72 72 74 73 73 79 83 83 90 107 101 99 100 92 87 87 86 91 93
25 22 21 18 16 13 11 10 10 13 17 22 25 28 33 36 40 43 48 52 57 62 65 69 72 74 77 74 74 78 83 86 89 98 105 96 103 100 95 94 92 92 91
24 21 19 16 12 8 4 1 4 8 11 15 18 21 25 29 34 38 43 48 53 58 61 65 69 73 75 76 76 79 81 87 92 97 105 103 102 101 96 98 98 95 95
21 20 17 15 11 7 4 3 7 11 15 19 21 24 27 31 34 39 44 48 53 57 60 62 65 68 71 74 76 82 85 88 93 98 104 105 105 109 106 98 99 94 96
20 17 15 10 7 7 11 13 17 21 24 28 33 36 38 40 44 47 52 57 60 63 65 66 68 69 70 71 74 78 81 89 97 100 106 110 112 108 107 101 96 90 93
13 9 5 3 8 13 17 21 25 29 32 36 39 44 46 47 50 52 55 62 66 66 69 72 74 74 74 75 76 78 81 82 87 93 107 116 112 109 104 104 103 97 96
4 2 6 11 16 20 24 30 34 38 41 45 47 50 55 53 56 60 63 69 75 77 77 77 81 80 79 79 81 85 88 88 85 85 93 107 108 107 106 106 102 95 82
5 9 13 18 23 27 31 35 40 45 47 51 54 57 61 63 60 65 69 75 82 86 87 88 87 90 85 81 82 85 91 94 89 86 86 89 93 91 91 95 99 92 84
9 14 19 24 30 34 38 43 47 53 58 61 63 63 66 69 66 66 69 77 86 90 94 97 96 94 91 86 81 80 88 92 85 84 86 83 82 82 75 93 91 92 86
13 19 25 31 37 44 48 53 60 63 68 70 74 75 75 73 73 72 72 76 80 86 91 94 93 91 90 89 81 77 81 79 80 83 86 86 83 79 73 74 83 85 83
23 29 35 41 46 51 58 61 66 71 76 80 83 84 81 78 79 74 74 75 73 76 83 89 92 91 85 83 77 76 74 69 77 82 84 86 84 78 70 64 66 71 72
27 33 38 43 48 54 59 65 69 71 76 80 82 86 87 83 81 79 78 74 70 71 78 83 81 82 80 81 81 73 69 74 78 82 82 84 82 74 61 53 55 59 63
33 38 43 47 52 57 62 67 71 72 74 76 78 80 84 87 83 82 78 75 75 78 80 84 84 85 86 85 76 68 62 65 70 74 72 71 72 66 56 52 55 59 57
35 39 44 49 54 58 60 63 65 65 68 73 72 73 78 88 86 73 70 77 77 74 74 80 85 84 85 79 72 67 59 54 55 58 58 57 62 58 53 51 53 56 56
35 40 47 53 58 61 66 67 60 65 64 62 60 62 71 73 79 69 65 69 73 71 70 71 75 76 78 82 72 65 57 50 46 47 49 48 52 50 46 45 47 49 52
40 46 50 54 58 62 64 67 76 67 62 62 60 60 57 64 60 60 64 67 68 63 63 66 71 72 74 71 66 58 55 48 41 39 37 40 41 40 39 41 43 45 48
43 49 54 55 56 57 59 61 64 68 74 70 58 56 48 49 53 56 54 58 64 58 58 62 60 60 61 59 52 46 45 37 34 30 31 34 36 35 35 38 41 46 48
45 49 52 53 54 55 56 57 57 59 62 66 67 62 58 54 51 50 48 51 56 55 51 52 56 57 53 46 39 38 36 32 28 24 27 28 30 31 32 34 36 41 45
42 45 48 50 51 51 50 51 52 53 56 59 60 62 64 64 59 56 52 49 46 47 44 41 42 43 39 33 33 32 30 27 23 21 23 25 25 24 28 28 31 35 40
37 38 41 42 43 45 46 47 48 50 52 53 52 52 53 55 55 52 50 45 42 40 37 36 37 33 31 28 26 27 26 25 22 21 23 24 24 26 26 29 30 32 31
33 34 35 37 39 39 40 42 43 45 47 50 49 46 46 46 45 44 43 41 38 36 36 34 33 32 31 29 25 24 24 23 21 20 21 23 24 25 25 26 27 30 33
29 30 30 31 32 33 35 37 38 40 40 42 45 46 44 44 43 42 41 40 39 37 35 33 32 29 28 25 24 24 22 21 21 20 21 21 22 23 25 27 29 31 35
25 27 27 29 31 31 33 34 34 35 37 38 39 39 41 41 41 41 39 38 37 35 35 33 31 28 25 23 21 20 22 23 23 22 22 23 24 24 27 30 31 32 33
26 27 29 31 32 33 33 35 36 37 37 38 39 39 38 39 39 39 39 38 37 35 33 31 30 28 26 24 23 21 20 19 21 22 24 27 30 30 31 31 33 34 36
28 29 30 32 34 35 36 36 37 37 38 39 39 40 42 41 40 40 40 39 38 36 34 33 31 30 29 29 29 31 30 28 28 29 30 30 31 32 34 35 36 37 38
Wind_Direction_500mb
154 165 174 185 195 204 212 220 229 235 242 246 250 256 261 263 266 267 269 272 274 276 277 277 277 278 278 278 278 277 277 277 278 285 285 288 287 286 283 281 278 278 276
134 138 144 149 156 166 178 194 212 233 243 252 259 265 266 266 266 267 268 270 272 274 277 279 280 281 280 279 278 277 278 278 278 282 285 286 287 286 284 281 279 277 275
130 134 134 140 147 160 178 205 229 247 258 264 266 269 271 273 273 275 277 277 277 278 278 279 280 280 279 278 278 278 279 280 279 281 284 284 284 284 284 282 280 279 278
138 138 139 135 131 130 135 225 285 288 290 287 285 283 282 283 283 284 284 285 283 282 281 281 281 280 280 281 280 279 279 281 282 281 282 283 283 282 280 279 280 280 279
138 136 133 123 111 92 60 351 319 311 306 302 301 299 299 298 297 296 295 293 293 292 291 291 290 288 285 283 279 279 278 277 276 277 278 279 277 277 277 282 280 283 281
137 127 114 99 67 12 342 328 320 312 309 307 308 309 308 306 304 302 300 298 298 298 299 298 296 294 293 289 283 279 274 272 273 273 275 274 276 276 281 281 281 276 272
134 124 104 16 337 324 316 313 308 305 304 302 300 298 296 298 300 299 299 298 298 300 301 302 300 298 296 294 291 287 280 273 268 268 270 271 274 276 278 278 277 275 277
183 281 315 319 319 316 313 311 309 307 306 305 304 303 301 300 298 297 297 297 297 297 298 298 299 299 300 300 296 290 287 283 277 272 268 271 274 277 274 276 279 281 277
282 305 313 317 319 319 318 317 315 312 311 310 310 309 307 306 305 301 298 295 293 293 294 294 295 296 298 298 295 294 292 288 287 282 277 274 273 275 272 269 263 258 253
318 324 326 325 322 320 320 318 316 314 313 312 310 310 309 308 308 306 303 301 299 299 298 296 295 294 294 294 294 293 291 294 294 292 287 281 277 276 266 262 262 256 250
325 324 322 321 320 318 318 318 315 313 310 310 308 308 307 309 308 306 304 301 300 299 298 298 299 299 297 296 296 290 288 295 292 289 286 284 282 278 274 267 264 260 256
326 324 324 323 322 321 319 318 314 313 310 308 306 304 305 306 305 304 305 302 301 299 298 299 299 298 297 294 290 288 288 288 284 283 282 282 281 281 280 275 267 262 258
318 317 316 317 317 316 314 313 313 313 312 310 308 306 305 305 305 306 305 304 302 300 300 302 304 303 300 294 291 291 285 282 280 279 279 279 280 283 283 275 264 258 250
313 314 316 317 317 316 314 312 311 313 312 311 309 307 305 303 305 306 308 306 303 303 303 305 306 305 303 305 304 299 291 283 281 281 280 281 280 279 275 265 256 248 236
315 318 318 318 318 317 316 315 312 313 314 313 312 309 308 305 306 304 300 300 300 298 298 295 296 297 297 303 304 304 301 289 284 283 282 278 271 272 266 262 250 238 227
318 318 319 319 319 318 317 316 314 314 314 312 311 310 306 303 305 304 299 297 298 299 296 292 291 290 291 301 304 304 299 292 286 283 285 278 267 266 263 254 244 236 225
320 318 319 320 320 319 317 317 317 316 316 316 317 315 313 309 308 305 303 301 300 301 292 290 290 291 293 301 302 300 296 294 288 286 285 276 267 264 261 248 239 225 220
318 317 317 317 318 318 317 318 318 319 320 321 322 322 323 316 310 308 308 308 308 309 302 296 293 294 299 301 299 296 297 291 288 286 276 273 268 263 257 244 238 225 224
314 314 316 317 318 317 316 317 319 320 323 324 327 331 330 324 324 321 317 313 315 314 309 302 301 300 300 299 293 297 296 292 291 281 277 273 270 261 257 250 242 237 232
310 312 314 314 315 317 318 319 321 323 326 328 330 331 330 332 335 334 330 320 309 305 305 306 305 304 302 301 297 295 297 293 289 280 274 266 265 258 256 254 245 240 236
312 313 313 315 317 318 320 321 323 325 327 329 333 333 331 332 334 334 333 329 322 316 312 307 302 304 312 307 298 295 296 296 285 277 276 274 270 263 256 251 250 244 238
314 315 316 317 319 320 322 324 327 329 330 332 335 337 335 333 333 334 335 335 331 326 320 316 310 302 299 299 302 292 288 291 293 286 272 266 264 262 258 253 248 242 241
314 315 315 315 317 320 323 325 327 329 332 334 336 338 340 340 340 339 337 333 333 333 330 324 314 303 294 292 291 289 285 278 274 273 273 270 262 255 252 248 245 242 240
313 314 315 317 318 319 320 321 323 326 329 332 335 337 340 341 343 343 341 339 335 331 329 330 329 324 312 301 294 288 282 278 276 271 267 265 263 259 253 248 245 242 241
306 310 312 313 313 313 315 316 318 321 324 326 329 332 335 337 338 340 341 342 341 338 336 333 328 326 324 319 313 308 296 285 282 280 276 271 266 259 254 251 249 245 241
302 303 305 307 308 309 310 311 312 314 316 319 321 324 326 328 330 332 333 335 336 338 339 339 337 333 327 319 311 305 302 295 289 286 283 279 274 267 260 255 250 247 244
Wind_Speed_850mb
19 18 18 19 21 23 26 29 31 33 33 33 33 34 39 44 46 51 56 59 63 66 68 69 72 71 74 73 74 80 81 82 100 111 104 100 98 92 89 89 88 90 91
22 20 19 18 17 16 14 14 14 15 18 21 25 29 34 39 42 46 51 54 59 65 66 70 72 72 74 73 73 79 83 83 90 107 101 99 100 92 87 87 86 91 93
25 22 21 18 16 13 11 10 10 13 17 22 25 28 33 36 40 43 48 52 57 62 65 69 72 74 77 74 74 78 83 86 89 98 105 96 103 100 95 94 92 92 91
24 21 19 16 12 8 4 1 4 8 11 15 18 21 25 29 34 38 43 48 53 58 61 65 69 73 75 76 76 79 81 87 92 97 105 103 102 101 96 98 98 95 95
21 20 17 15 11 7 4 3 7 11 15 19 21 24 27 31 34 39 44 48 53 57 60 62 65 68 71 74 76 82 85 88 93 98 104 105 105 109 106 98 99 94 96
20 17 15 10 7 7 11 13 17 21 24 28 33 36 38 40 44 47 52 57 60 63 65 66 68 69 70 71 74 78 81 89 97 100 106 110 112 108 107 101 96 90 93
13 9 5 3 8 13 17 21 25 29 32 36 39 44 46 47 50 52 55 62 66 66 69 72 74 74 74 75 76 78 81 82 87 93 107 116 112 109 104 104 103 97 96
4 2 6 11 16 20 24 30 34 38 41 45 47 50 55 53 56 60 63 69 75 77 77 77 81 80 79 79 81 85 88 88 85 85 93 107 108 107 106 106 102 95 82
5 9 13 18 23 27 31 35 40 45 47 51 54 57 61 63 60 65 69 75 82 86 87 88 87 90 85 81 82 85 91 94 89 86 86 89 93 91 91 95 99 92 84
9 14 19 24 30 34 38 43 47 53 58 61 63 63 66 69 66 66 69 77 86 90 94 97 96 94 91 86 81 80 88 92 85 84 86 83 82 82 75 93 91 92 86
13 19 25 31 37 44 48 53 60 63 68 70 74 75 75 73 73 72 72 76 80 86 91 94 93 91 90 89 81 77 81 79 80 83 86 86 83 79 73 74 83 85 83
23 29 35 41 46 51 58 61 66 71 76 80 83 84 81 78 79 74 74 75 73 76 83 89 92 91 85 83 77 76 74 69 77 82 84 86 84 78 70 64 66 71 72
27 33 38 43 48 54 59 65 69 71 76 80 82 86 87 83 81 79 78 74 70 71 78 83 81 82 80 81 81 73 69 74 78 82 82 84 82 74 61 53 55 59 63
33 38 43 47 52 57 62 67 71 72 74 76 78 80 84 87 83 82 78 75 75 78 80 84 84 85 86 85 76 68 62 65 70 74 72 71 72 66 56 52 55 59 57
35 39 44 49 54 58 60 63 65 65 68 73 72 73 78 88 86 73 70 77 77 74 74 80 85 84 85 79 72 67 59 54 55 58 58 57 62 58 53 51 53 56 56
35 40 47 53 58 61 66 67 60 65 64 62 60 62 71 73 79 69 65 69 73 71 70 71 75 76 78 82 72 65 57 50 46 47 49 48 52 50 46 45 47 49 52
40 46 50 54 58 62 64 67 76 67 62 62 60 60 57 64 60 60 64 67 68 63 63 66 71 72 74 71 66 58 55 48 41 39 37 40 41 40 39 41 43 45 48
43 49 54 55 56 57 59 61 64 68 74 70 58 56 48 49 53 56 54 58 64 58 58 62 60 60 61 59 52 46 45 37 34 30 31 34 36 35 35 38 41 46 48
45 49 52 53 54 55 56 57 57 59 62 66 67 62 58 54 51 50 48 51 56 55 51 52 56 57 53 46 39 38 36 32 28 24 27 28 30 31 32 34 36 41 45
42 45 48 50 51 51 50 51 52 53 56 59 60 62 64 64 59 56 52 49 46 47 44 41 42 43 39 33 33 32 30 27 23 21 23 25 25 24 28 28 31 35 40
37 38 41 42 43 45 46 47 48 50 52 53 52 52 53 55 55 52 50 45 42 40 37 36 37 33 31 28 26 27 26 25 22 21 23 24 24 26 26 29 30 32 31
33 34 35 37 39 39 40 42 43 45 47 50 49 46 46 46 45 44 43 41 38 36 36 34 33 32 31 29 25 24 24 23 21 20 21 23 24 25 25 26 27 30 33
29 30 30 31 32 33 35 37 38 40 40 42 45 46 44 44 43 42 41 40 39 37 35 33 32 29 28 25 24 24 22 21 21 20 21 21 22 23 25 27 29 31 35
25 27 27 29 31 31 33 34 34 35 37 38 39 39 41 41 41 41 39 38 37 35 35 33 31 28 25 23 21 20 22 23 23 22 22 23 24 24 27 30 31 32 33
26 27 29 31 32 33 33 35 36 37 37 38 39 39 38 39 39 39 39 38 37 35 33 31 30 28 26 24 23 21 20 19 21 22 24 27 30 30 31 31 33 34 36
28 29 30 32 34 35 36 36 37 37 38 39 39 40 42 41 40 40 40 39 38 36 34 33 31 30 29 29 29 31 30 28 28 29 30 30 31 32 34 35 36 37 38
Wind_Direction_850mb
154 165 174 185 195 204 212 220 229 235 242 246 250 256 261 263 266 267 269 272 274 276 277 277 277 278 278 278 278 277 277 277 278 285 285 288 287 286 283 281 278 278 276
134 138 144 149 156 166 178 194 212 233 243 252 259 265 266 266 266 267 268 270 272 274 277 279 280 281 280 279 278 277 278 278 278 282 285 286 287 286 284 281 279 277 275
130 134 134 140 147 160 178 205 229 247 258 264 266 269 271 273 273 275 277 277 277 278 278 279 280 280 279 278 278 278 279 280 279 281 284 284 284 284 284 282 280 279 278
138 138 139 135 131 130 135 225 285 288 290 287 285 283 282 283 283 284 284 285 283 282 281 281 281 280 280 281 280 279 279 281 282 281 282 283 283 282 280 279 280 280 279
138 136 133 123 111 92 60 351 319 311 306 302 301 299 299 298 297 296 295 293 293 292 291 291 290 288 285 283 279 279 278 277 276 277 278 279 277 277 277 282 280 283 281
137 127 114 99 67 12 342 328 320 312 309 307 308 309 308 306 304 302 300 298 298 298 299 298 296 294 293 289 283 279 274 272 273 273 275 274 276 276 281 281 281 276 272
134 124 104 16 337 324 316 313 308 305 304 302 300 298 296 298 300 299 299 298 298 300 301 302 300 298 296 294 291 287 280 273 268 268 270 271 274 276 278 278 277 275 277
183 281 315 319 319 316 313 311 309 307 306 305 304 303 301 300 298 297 297 297 297 297 298 298 299 299 300 300 296 290 287 283 277 272 268 271 274 277 274 276 279 281 277
282 305 313 317 319 319 318 317 315 312 311 310 310 309 307 306 305 301 298 295 293 293 294 294 295 296 298 298 295 294 292 288 287 282 277 274 273 275 272 269 263 258 253
318 324 326 325 322 320 320 318 316 314 313 312 310 310 309 308 308 306 303 301 299 299 298 296 295 294 294 294 294 293 291 294 294 292 287 281 277 276 266 262 262 256 250
325 324 322 321 320 318 318 318 315 313 310 310 308 308 307 309 308 306 304 301 300 299 298 298 299 299 297 296 296 290 288 295 292 289 286 284 282 278 274 267 264 260 256
326 324 324 323 322 321 319 318 314 313 310 308 306 304 305 306 305 304 305 302 301 299 298 299 299 298 297 294 290 288 288 288 284 283 282 282 281 281 280 275 267 262 258
318 317 316 317 317 316 314 313 313 313 312 310 308 306 305 305 305 306 305 304 302 300 300 302 304 303 300 294 291 291 285 282 280 279 279 279 280 283 283 275 264 258 250
313 314 316 317 317 316 314 312 311 313 312 311 309 307 305 303 305 306 308 306 303 303 303 305 306 305 303 305 304 299 291 283 281 281 280 281 280 279 275 265 256 248 236
315 318 318 318 318 317 316 315 312 313 314 313 312 309 308 305 306 304 300 300 300 298 298 295 296 297 297 303 304 304 301 289 284 283 282 278 271 272 266 262 250 238 227
318 318 319 319 319 318 317 316 314 314 314 312 311 310 306 303 305 304 299 297 298 299 296 292 291 290 291 301 304 304 299 292 286 283 285 278 267 266 263 254 244 236 225
320 318 319 320 320 319 317 317 317 316 316 316 317 315 313 309 308 305 303 301 300 301 292 290 290 291 293 301 302 300 296 294 288 286 285 276 267 264 261 248 239 225 220
318 317 317 317 318 318 317 318 318 319 320 321 322 322 323 316 310 308 308 308 308 309 302 296 293 294 299 301 299 296 297 291 288 286 276 273 268 263 257 244 238 225 224
314 314 316 317 318 317 316 317 319 320 323 324 327 331 330 324 324 321 317 313 315 314 309 302 301 300 300 299 293 297 296 292 291 281 277 273 270 261 257 250 242 237 232
310 312 314 314 315 317 318 319 321 323 326 328 330 331 330 332 335 334 330 320 309 305 305 306 305 304 302 301 297 295 297 293 289 280 274 266 265 258 256 254 245 240 236
312 313 313 315 317 318 320 321 323 325 327 329 333 333 331 332 334 334 333 329 322 316 312 307 302 304 312 307 298 295 296 296 285 277 276 274 270 263 256 251 250 244 238
314 315 316 317 319 320 322 324 327 329 330 332 335 337 335 333 333 334 335 335 331 326 320 316 310 302 299 299 302 292 288 291 293 286 272 266 264 262 258 253 248 242 241
314 315 315 315 317 320 323 325 327 329 332 334 336 338 340 340 340 339 337 333 333 333 330 324 314 303 294 292 291 289 285 278 274 273 273 270 262 255 252 248 245 242 240
313 314 315 317 318 319 320 321 323 326 329 332 335 337 340 341 343 343 341 339 335 331 329 330 329 324 312 301 294 288 282 278 276 271 267 265 263 259 253 248 245 242 241
306 310 312 313 313 313 315 316 318 321 324 326 329 332 335 337 338 340 341 342 341 338 336 333 328 326 324 319 313 308 296 285 282 280 276 271 266 259 254 251 249 245 241
302 303 305 307 308 309 310 311 312 314 316 319 321 324 326 328 330 332 333 335 336 338 339 339 337 333 327 319 311 305 302 295 289 286 283 279 274 267 260 255 250 247 244